The following orbital elements are taken from MPC 56805:
Epoch 2009 Nov. 25.0 TT = JDT 2455160.5
T 2009 Nov. 30.3044 TT MPC
q 0.607749 (2000.0) P Q
n 0.2342935 Peri. 217.9590 +0.8267782 -0.5623774
a 2.605929 Node 176.1910 +0.5520660 +0.8067424
e 0.766782 Incl. 11.2998 +0.1079857 +0.1813791
P 4.21
From 601 observations 1989-2006, mean residual 0".4.
星図
光度変化
H = 15.3 G = 0.15 [ ,-60] ( 〜2009年10月 1日)
m1 = 15.8 + 5 logΔ + 20.0 log r [-60, 60] (2009年10月 1日〜2010年 1月29日)
H = 15.3 G = 0.15 [ 60, ] (2010年 1月29日〜 )
※ 緑色の曲線は、H = 15.3 G = 0.15 の光度曲線です。